Meridian, MS

2:05 PM CST on December 05, 2019 (GMT -0600)
Key

Weather History for KMEI - October, 2019

Change the Weather History Date:

Friday, October 4, 2019

  Actual Average Record
Temperature  
Mean Temperature 87 °F 68 °F  
Max Temperature 100 °F 81 °F 97 °F (1954)
Min Temperature 73 °F 56 °F 37 °F (1974)
Degree Days  
Heating Degree Days 0 1  
Month to date heating degree days 0 4  
Since 1 July heating degree days 0 11  
Cooling Degree Days 22 5  
Month to date cooling degree days 87 21  
Year to date cooling degree days 2719 1944  
Growing Degree Days 37 (Base 50)    
Moisture  
Dew Point 68 °F    
Average Humidity 61    
Maximum Humidity 87    
Minimum Humidity 31    
Precipitation  
Precipitation 0.00 in 0.12 in 3.46 in (1964)
Month to date precipitation T 0.46  
Year to date precipitation 43.18 42.85  
Sea Level Pressure  
Sea Level Pressure 30.00 in    
Wind  
Wind Speed 4 mph ()    
Max Wind Speed 15 mph    
Max Gust Speed 19 mph    
Visibility 10.0 miles    
Events Thunderstorm    
T = Trace of Precipitation, MM = Missing Value Source: Averaged Metar Reports

Daily Weather History Graph

Daily Weather History Graph

Search for Another Location

Airport or City:

Astronomy

Oct. 04, 2019 Rise Set
Actual Time 6:50 AM CDT 6:36 PM CDT
Civil Twilight 6:26 AM CDT 7:00 PM CDT
Nautical Twilight 5:57 AM CDT 7:28 PM CDT
Astronomical Twilight 5:29 AM CDT 7:57 PM CDT
Moon 1:04 PM CDT (10/4) 11:23 PM CDT (10/4)
Length of Visible Light 12h 34m
Length of Day
11h 45m
Waxing Crescent, 40% of the Moon is Illuminated
Oct 4
Waxing Crescent
Oct 5
First Quarter
Oct 13
Full
Oct 21
Last Quarter
Oct 27
New

Hourly Weather History & Observations

Time (CDT) Temp. Heat Index Dew Point Humidity Pressure Visibility Wind Dir Wind Speed Gust Speed Precip Events Conditions
12:58 AM 78.1 °F - 69.1 °F 74% 30.02 in 10.0 mi Calm Calm - 0.00 in   Scattered Clouds
1:58 AM 77.0 °F - 68.0 °F 74% 30.03 in 10.0 mi Calm Calm - N/A   Clear
2:58 AM 75.9 °F - 68.0 °F 76% 30.02 in 10.0 mi Calm Calm - N/A   Mostly Cloudy
3:58 AM 75.9 °F - 69.1 °F 79% 30.01 in 10.0 mi Calm Calm - N/A   Partly Cloudy
4:58 AM 73.0 °F - 68.0 °F 84% 30.01 in 10.0 mi South 3.5 mph - N/A   Clear
5:58 AM 73.9 °F - 69.1 °F 85% 30.03 in 10.0 mi SW 4.6 mph - N/A   Scattered Clouds
6:58 AM 75.9 °F - 69.1 °F 79% 30.03 in 10.0 mi NNE 3.5 mph - N/A   Mostly Cloudy
7:58 AM 78.1 °F - 69.1 °F 74% 30.04 in 10.0 mi North 5.8 mph - N/A   Mostly Cloudy
8:58 AM 82.9 °F 85.8 °F 68.0 °F 60% 30.05 in 10.0 mi North 11.5 mph - N/A   Clear
9:58 AM 87.1 °F 90.6 °F 68.0 °F 53% 30.05 in 10.0 mi NNE 10.4 mph - N/A   Partly Cloudy
10:58 AM 90.0 °F 92.8 °F 66.9 °F 46% 30.04 in 10.0 mi NNE 13.8 mph - N/A   Clear
11:58 AM 91.9 °F 95.4 °F 66.9 °F 44% 30.03 in 10.0 mi NE 10.4 mph - N/A   Clear
1:58 PM 98.1 °F 102.4 °F 66.9 °F 36% 29.98 in 10.0 mi NE 9.2 mph - N/A   Clear
2:58 PM 99.0 °F 102.9 °F 66.0 °F 34% 29.96 in 10.0 mi NE 9.2 mph - N/A   Clear
3:58 PM 100.0 °F 103.0 °F 64.0 °F 31% 29.94 in 10.0 mi North 13.8 mph - N/A   Scattered Clouds
4:58 PM 96.1 °F 99.3 °F 66.0 °F 37% 29.93 in 10.0 mi North 11.5 mph - N/A   Scattered Clouds
5:58 PM 91.9 °F 95.4 °F 66.9 °F 44% 29.93 in 10.0 mi North 8.1 mph - N/A Thunderstorm Clear
6:25 PM 91.0 °F 95.2 °F 68.0 °F 47% 29.96 in 10.0 mi NNW 6.9 mph - N/A   Clear
6:58 PM 89.1 °F 93.7 °F 69.1 °F 52% 29.96 in 10.0 mi North 6.9 mph - N/A   Clear
7:58 PM 86.0 °F 90.7 °F 70.0 °F 59% 29.97 in 10.0 mi Variable 3.5 mph - N/A   Partly Cloudy
8:58 PM 82.0 °F 85.5 °F 69.1 °F 65% 30.00 in 10.0 mi SSW 5.8 mph - N/A   Clear
9:58 PM 80.1 °F 82.9 °F 69.1 °F 69% 30.01 in 10.0 mi Calm Calm - N/A   Clear
10:58 PM 79.0 °F - 70.0 °F 74% 30.01 in 10.0 mi Calm Calm - N/A   Clear
11:58 PM 77.0 °F - 70.0 °F 79% 30.01 in 10.0 mi South 3.5 mph - N/A   Clear